[Date Prev][Date Next][Thread Prev][Thread Next] - [Date Index][Thread Index][Author Index]

2 Line ISS Keps 6-9



ISS
1 25544U 98067A   03160.54117101  .00013955  00000-0  17951-3 0   989
2 25544  51.6332  58.6609 0006568 231.2074 196.5226 15.59348493259817


----
Via the sarex mailing list at AMSAT.ORG courtesy of AMSAT-NA.
To unsubscribe, send "unsubscribe sarex" to Majordomo@amsat.org



AMSAT Top AMSAT Home